Sydney, Australia

1:09 AM AEST on April 20, 2018 (GMT +1000)
Kingsford Smith International

Weather History for YSSY - August, 2013

Change the Weather History Date:

Saturday, August 10, 2013

  Actual Average Record
Temperature  
Mean Temperature 63 °F -  
Max Temperature 75 °F 66 °F 78 °F (2002)
Min Temperature 51 °F 47 °F 39 °F (1997)
Degree Days  
Heating Degree Days 2    
Growing Degree Days 13 (Base 50)    
Moisture  
Dew Point 40 °F    
Average Humidity 44    
Maximum Humidity 77    
Minimum Humidity 15    
Precipitation  
Precipitation 0.00 in 0.10 in - ()
Sea Level Pressure  
Sea Level Pressure 29.96 in    
Wind  
Wind Speed 8 mph ()    
Max Wind Speed 16 mph    
Max Gust Speed -    
Visibility 18.0 miles    
Events      
Averages and records for this station are not official NWS values.
T = Trace of Precipitation, MM = Missing Value Source: Averaged Metar Reports

Daily Weather History Graph

Daily Weather History Graph

Search for Another Location

Airport or City:

Astronomy

Aug. 10, 2013 Rise Set
Actual Time 6:39 AM AEST 5:21 PM AEST
Civil Twilight 6:13 AM AEST 5:47 PM AEST
Nautical Twilight 5:44 AM AEST 6:17 PM AEST
Astronomical Twilight 5:14 AM AEST 6:46 PM AEST
Moon 8:05 AM AEST (8/10) 8:35 PM AEST (8/10)
Length of Visible Light 11h 34m
Length of Day
10h 42m
Waxing Crescent, 10% of the Moon is Illuminated
Aug 10
Waxing Crescent
Aug 14
First Quarter
Aug 21
Full
Aug 28
Last Quarter
Sep 5
New

Hourly Weather History & Observations

Time (AEST) Temp. Dew Point Humidity Pressure Visibility Wind Dir Wind Speed Gust Speed Precip Events Conditions
12:00 AM 57 °F 34 °F 30% 29.95 in 16 mi WNW 8.1 mph - -   Mostly Cloudy
12:00 AM 57.2 °F 33.8 °F 41% 29.95 in - WNW 8.1 mph - N/A   Clear
12:30 AM 57.2 °F 32.0 °F 38% 29.92 in - WNW 5.8 mph - N/A   Clear
1:00 AM 55 °F 36 °F 36% 29.94 in - ENE 3.5 mph - -  
1:00 AM 55.4 °F 35.6 °F 47% 29.92 in - ENE 3.5 mph - N/A   Clear
1:30 AM 55.4 °F 39.2 °F 54% 29.92 in - WSW 6.9 mph - N/A   Clear
2:00 AM 55 °F 37 °F 39% 29.95 in - WSW 8.1 mph - -  
2:00 AM 55.4 °F 37.4 °F 51% 29.95 in - WSW 8.1 mph - N/A   Clear
3:00 AM 55 °F 36 °F 36% 29.94 in 19 mi NW 6.9 mph - -   Partly Cloudy
3:00 AM 55.4 °F 35.6 °F 47% 29.92 in - NW 6.9 mph - N/A   Clear
3:30 AM 55.4 °F 35.6 °F 47% 29.92 in - NNW 10.4 mph - N/A   Clear
4:00 AM 54 °F 35 °F 36% 29.93 in - NW 9.2 mph - -  
4:00 AM 53.6 °F 35.6 °F 51% 29.92 in - NW 9.2 mph - N/A   Clear
4:30 AM 53.6 °F 35.6 °F 51% 29.92 in - NNW 10.4 mph - N/A   Clear
5:00 AM 53 °F 32 °F 32% 29.94 in - NW 12.7 mph - -  
5:00 AM 53.6 °F 32.0 °F 44% 29.92 in - NW 12.7 mph - N/A   Clear
5:30 AM 53.6 °F 32.0 °F 44% 29.95 in - West 10.4 mph - N/A   Clear
6:00 AM 51 °F 34 °F 40% 29.96 in 22 mi WNW 13.8 mph - -   Partly Cloudy
6:00 AM 51.8 °F 33.8 °F 50% 29.95 in - WNW 13.8 mph - N/A   Clear
6:30 AM 51.8 °F 32.0 °F 47% 29.95 in - WNW 12.7 mph - N/A   Clear
7:00 AM 53 °F 33 °F 34% 29.97 in - WNW 8.1 mph - -  
7:00 AM 53.6 °F 32.0 °F 44% 29.95 in - WNW 8.1 mph - N/A   Clear
7:30 AM 53.6 °F 33.8 °F 47% 29.98 in - NW 10.4 mph - N/A   Clear
8:00 AM 55 °F 33 °F 32% 29.99 in - WNW 5.8 mph - -  
8:00 AM 55.4 °F 33.8 °F 44% 29.98 in - WNW 5.8 mph - N/A   Clear
8:30 AM 55.4 °F 37.4 °F 51% 30.01 in - West 4.6 mph - N/A   Clear
9:00 AM 59.0 °F 35.6 °F 42% 29.98 in - West 6.9 mph - N/A   Clear
9:30 AM 60.8 °F 37.4 °F 42% 30.01 in - SW 5.8 mph - N/A   Clear
10:00 AM 58 °F 41 °F 42% 30.01 in - South 3.5 mph - -  
10:00 AM 59.0 °F 41.0 °F 51% 30.01 in - South 3.5 mph - N/A   Clear
10:30 AM 60.8 °F 41.0 °F 48% 30.01 in - SE 5.8 mph - N/A   Clear
11:00 AM 68 °F 32 °F 16% 29.99 in - West 9.2 mph - -  
11:00 AM 68.0 °F 32.0 °F 26% 29.98 in - West 9.2 mph - N/A   Clear
11:30 AM 69.8 °F 33.8 °F 27% 29.98 in - West 6.9 mph - N/A   Clear
12:00 PM 68 °F 35 °F 19% 29.97 in 25 mi West 12.7 mph - -   Partly Cloudy
12:00 PM 68.0 °F 35.6 °F 30% 29.95 in - West 12.7 mph - N/A   Clear
12:30 PM 69.8 °F 35.6 °F 28% 29.95 in - West 12.7 mph - N/A   Clear
1:00 PM 71 °F 36 °F 18% 29.94 in - West 16.1 mph - -  
1:00 PM 69.8 °F 35.6 °F 28% 29.92 in - West 16.1 mph - N/A   Clear
1:30 PM 71.6 °F 37.4 °F 29% 29.92 in - West 13.8 mph - N/A   Clear
2:00 PM 72 °F 38 °F 18% 29.93 in - West 9.2 mph - -  
2:00 PM 71.6 °F 37.4 °F 29% 29.92 in - West 9.2 mph - N/A   Clear
2:30 PM 73.4 °F 39.2 °F 29% 29.92 in - West 15.0 mph - N/A   Clear
3:00 PM 75 °F 37 °F 15% 29.92 in 25 mi West 10.4 mph - -   Partly Cloudy
3:00 PM 75.2 °F 37.4 °F 25% 29.92 in - West 10.4 mph - N/A   Clear
3:30 PM 73.4 °F 35.6 °F 25% 29.92 in - West 16.1 mph - N/A   Clear
4:00 PM 68 °F 47 °F 36% 29.94 in - SSE 10.4 mph - -  
4:00 PM 68.0 °F 46.4 °F 46% 29.92 in - SSE 10.4 mph - N/A   Clear
4:30 PM 68.0 °F 44.6 °F 43% 29.92 in - SE 8.1 mph - N/A   Clear
5:00 PM 64 °F 49 °F 48% 29.94 in - SE 9.2 mph - -  
5:00 PM 64.4 °F 50.0 °F 59% 29.92 in - SE 9.2 mph - N/A   Clear
5:30 PM 62.6 °F 53.6 °F 72% 29.95 in - SE 8.1 mph - N/A   Clear
6:00 PM 61 °F 54 °F 71% 29.96 in 25 mi SSW 5.8 mph - -   Partly Cloudy
6:00 PM 60.8 °F 53.6 °F 77% 29.95 in - SSW 5.8 mph - N/A   Clear
6:30 PM 60.8 °F 51.8 °F 72% 29.95 in - SSW 8.1 mph - N/A   Clear
7:00 PM 60 °F 53 °F 71% 29.98 in - South 5.8 mph - -  
7:00 PM 60.8 °F 53.6 °F 77% 29.98 in - South 5.8 mph - N/A   Clear
7:30 PM 60.8 °F 51.8 °F 72% 29.98 in - SW 5.8 mph - N/A   Clear
8:00 PM 62 °F 51 °F 57% 30.00 in - North 5.8 mph - -  
8:00 PM 62.6 °F 50.0 °F 63% 29.98 in - North 5.8 mph - N/A   Clear
8:30 PM 62.6 °F 44.6 °F 52% 30.01 in - NW 4.6 mph - N/A   Clear
9:00 PM 60 °F 49 °F 57% 30.01 in 19 mi NNW 6.9 mph - -   Partly Cloudy
9:00 PM 59.0 °F 48.2 °F 67% 30.01 in - NNW 6.9 mph - N/A   Clear
9:30 PM 60.8 °F 42.8 °F 52% 30.01 in - WNW 9.2 mph - N/A   Clear
10:00 PM 59 °F 41 °F 39% 30.02 in - NW 10.4 mph - -  
10:00 PM 59.0 °F 41.0 °F 51% 30.01 in - NW 10.4 mph - N/A   Clear
10:30 PM 59.0 °F 39.2 °F 48% 30.01 in - NW 8.1 mph - N/A   Clear
11:00 PM 58 °F 40 °F 39% 30.02 in - West 9.2 mph - -  
11:00 PM 57.2 °F 39.2 °F 51% 30.01 in - West 9.2 mph - N/A   Clear
11:30 PM 57.2 °F 41.0 °F 55% 30.01 in - WNW 9.2 mph - N/A   Clear